Regional Weather Roundup
Issued by NWS Huntsville, AL

Home | Current Version | Previous Version | Text Only | Print | Product List | Glossary On
Versions: 1 2 3 4 5 6 7 8 9 10 11 12 13 14 15 16 17 18 19 20 21 22 23 24 25 26 27 28 29 30 31 32 33 34 35 36 37 38 39 40 41 42 43 44 45 46 47 48 49 50
000
ASUS44 KHUN 120710
RWRHUN

WEATHER ROUNDUP FOR THE TENNESSEE VALLEY
NATIONAL WEATHER SERVICE HUNTSVILLE AL
200 AM CDT SAT JUL 12 2014

ALZ001>004-120800-
NORTHWEST ALABAMA

CITY           SKY/WX    TMP DP  RH WIND       PRES   REMARKS
COURTLAND HCN    N/A     70 N/A N/A CALM        N/A
RUSSELLVILLE     N/A     66 N/A N/A MISG        N/A
SHOALS AIRPORT CLEAR     71  68  90 CALM      30.15F
SHOALS TVA RES   N/A     70 N/A N/A MISG        N/A
$$

ALZ005>007-016-120800-
NORTH CENTRAL ALABAMA

CITY           SKY/WX    TMP DP  RH WIND       PRES   REMARKS
CULLMAN AG STN   N/A     70 N/A N/A CALM        N/A
DECATUR AP     CLEAR     69  67  93 CALM      30.15F
HUNTSVILLE AP  CLEAR     73  68  84 E5        30.14F
MERIDIANVILLE  CLEAR     66  63  88 CALM      30.15F
VINEMONT AP    FAIR      68  67  98 CALM      30.18F
$$

ALZ008>010-120800-
NORTHEAST ALABAMA

CITY           SKY/WX    TMP DP  RH WIND       PRES   REMARKS
ALBERTVILLE    CLEAR     73  73 100 CALM      30.16S
FORT PAYNE     CLEAR    N/A N/A N/A CALM      30.16S
SCOTTSBORO AP  CLEAR     70  68  94 CALM      30.16F
SCOTTSBORO HCN   N/A     70 N/A N/A MISG        N/A
VALLEY HEAD      N/A     73 N/A N/A MISG        N/A
$$

TNZ076-096-097-120800-
SOUTHEASTERN MIDDLE TENNESSEE

CITY           SKY/WX    TMP DP  RH WIND       PRES   REMARKS
FAYETTEVILLE   CLEAR     70  66  88 CALM      30.17S
TULLAHOMA      CLEAR     66  63  88 CALM      30.19S
WINCHESTER     CLEAR     66  64  94 CALM      30.17F
$$

...SURROUNDING SITES...

CITY           SKY/WX    TMP DP  RH WIND       PRES   REMARKS
ATLANTA        PTCLDY    72  69  90 E3        30.17F
ANNISTON       CLEAR     73  71  93 NE3       30.15F
BIRMINGHAM     CLEAR     75  68  78 N3        30.15F
CHATTANOOGA    CLEAR     72  66  81 CALM      30.17F
CORINTH        FOG       70  68  94 CALM      30.14F VSB 1/4
DALTON         PTCLDY    72  70  94 CALM      30.17F
GADSDEN        CLEAR     72  68  88 NE3       30.14F
GOLDEN TRNGL   CLEAR     72  70  94 CALM      30.13F
HALEYVILLE     FAIR      67  67 100 CALM      30.18F FOG
JACKSON TN     CLEAR     69  67  93 CALM      30.15S
LEWISBURG      FAIR      66  63  90 CALM      30.16F
MEMPHIS        CLEAR     76  72  87 CALM      30.14F
MURFREESBORO   FAIR      70  64  81 CALM      30.15F
NASHVILLE      CLEAR     73  65  75 CALM      30.16F
ROME           CLEAR     71  68  90 SE7       30.16S
SAVANNAH       CLEAR     68  68 100 CALM      30.15F
TUPELO         CLEAR     74  71  91 CALM      30.13F
TUSCALOOSA     CLEAR     73  70  90 CALM      30.11F
$$

...GULF COAST WEATHER...

CITY           SKY/WX    TMP DP  RH WIND       PRES   REMARKS
GULFPORT       CLEAR     76  72  87 CALM      30.10F
PASCAGOULA     CLEAR     71  70  96 CALM      30.10F FOG
MOBILE         PTCLDY    71  71 100 CALM      30.11F FOG
GULF SHORES    MOSUNNY   71  70  96 CALM      30.09F
PENSACOLA      PTCLDY    72  71  97 CALM      30.08F
DESTIN         PTCLDY    80  71  74 CALM      30.08F
PANAMA CITY    CLEAR     76  76 100 E2        30.09F
APPALACHICOLA  PTCLDY    79  74  84 CALM      30.09F
$$




USA.gov is the U.S. government's official web portal to all federal, state and local government web resources and services.